Zurück zum Katalog

ONEWEB-0630

AktivKommunikationPO
NORAD 56072·PAYLOAD·🇬🇧 United Kingdom

Gestartet Mar 26, 2023 von Satish Dhawan Space Centre

Loading…

Nächste Überflüge (nächste 24 Stunden)

TLE

AktuellSource: CelesTrak SupGP

Epoche: Sep 14, 2026, 20:29 UTC

1 56072C 23043AC  26257.85363843  .00002199  00000+0  58485-2 0  2573
2 56072  87.8993 241.3192 0002093  79.5051 317.5090 13.15549112    17

Verfolge ONEWEB-0630 in Echtzeit mit AllMySat

Download on the App Store